owner,sensor,date,latitude,longitude,vertical_datum,direction_of_sea_water_velocity,sea_water_speed,upward_sea_water_velocity,qcFlag 
TABS,ioos:station:wmo:42044:1,2017-08-01T00:00:00Z,26.1914,-97.0507,2.0,328.8203174,15.45213254,-99999.0,'11111222,11111222,99999999' 
TABS,ioos:station:wmo:42044:1,2017-08-01T00:30:00Z,26.1914,-97.0507,2.0,335.9978943,17.50355678,-99999.0,'11111222,11111222,99999999' 
TABS,ioos:station:wmo:42044:1,2017-08-01T01:00:00Z,26.1914,-97.0507,2.0,337.1547521,21.09477897,-99999.0,'11111222,11111222,99999999' 
TABS,ioos:station:wmo:42044:1,2017-08-01T01:30:00Z,26.1914,-97.0507,2.0,343.9962074,9.394093889,-99999.0,'11133222,11111222,99999999' 
TABS,ioos:station:wmo:42044:1,2017-08-01T02:00:00Z,26.1914,-97.0507,2.0,324.1661222,7.41321118,-99999.0,'11133222,11111222,99999999' 
TABS,ioos:station:wmo:42044:1,2017-08-01T02:30:00Z,26.1914,-97.0507,2.0,351.2175682,21.48188306,-99999.0,'11111222,11111222,99999999' 
TABS,ioos:station:wmo:42044:1,2017-08-01T03:00:00Z,26.1914,-97.0507,2.0,335.4625394,4.551010877,-99999.0,'11133222,11111222,99999999' 
TABS,ioos:station:wmo:42044:1,2017-08-01T03:30:00Z,26.1914,-97.0507,2.0,341.540252,7.2321297,-99999.0,'11133222,11111222,99999999' 
TABS,ioos:station:wmo:42044:1,2017-08-01T04:00:00Z,26.1914,-97.0507,2.0,342.687938,10.65259593,-99999.0,'11111222,11111222,99999999' 
TABS,ioos:station:wmo:42044:1,2017-08-01T04:30:00Z,26.1914,-97.0507,2.0,345.5681813,11.23451824,-99999.0,'11111222,11111222,99999999' 
TABS,ioos:station:wmo:42044:1,2017-08-01T05:00:00Z,26.1914,-97.0507,2.0,353.4403159,19.87009059,-99999.0,'11111222,11111222,99999999' 
TABS,ioos:station:wmo:42044:1,2017-08-01T05:30:00Z,26.1914,-97.0507,2.0,351.6682522,19.66759009,-99999.0,'11111222,11111222,99999999' 
TABS,ioos:station:wmo:42044:1,2017-08-01T06:00:00Z,26.1914,-97.0507,2.0,352.3142705,22.80487886,-99999.0,'11111222,11111222,99999999' 
TABS,ioos:station:wmo:42044:1,2017-08-01T06:30:00Z,26.1914,-97.0507,2.0,357.8188127,22.85656361,-99999.0,'11111222,11111222,99999999' 
TABS,ioos:station:wmo:42044:1,2017-08-01T07:00:00Z,26.1914,-97.0507,2.0,350.3570091,28.11729895,-99999.0,'11111222,11111222,99999999' 
TABS,ioos:station:wmo:42044:1,2017-08-01T07:30:00Z,26.1914,-97.0507,2.0,350.2710021,29.29128539,-99999.0,'11111222,11111222,99999999' 
TABS,ioos:station:wmo:42044:1,2017-08-01T08:00:00Z,26.1914,-97.0507,2.0,349.4887983,29.27121453,-99999.0,'11111222,11111222,99999999' 
TABS,ioos:station:wmo:42044:1,2017-08-01T08:30:00Z,26.1914,-97.0507,2.0,353.0467293,25.68894899,-99999.0,'11111222,11111222,99999999' 
TABS,ioos:station:wmo:42044:1,2017-08-01T09:00:00Z,26.1914,-97.0507,2.0,352.8224881,25.61070284,-99999.0,'11111222,11111222,99999999' 
TABS,ioos:station:wmo:42044:1,2017-08-01T09:30:00Z,26.1914,-97.0507,2.0,353.9768049,24.96784532,-99999.0,'11111222,11111222,99999999' 
TABS,ioos:station:wmo:42044:1,2017-08-01T10:00:00Z,26.1914,-97.0507,2.0,351.6938743,24.36560075,-99999.0,'11111222,11111222,99999999' 
TABS,ioos:station:wmo:42044:1,2017-08-01T10:30:00Z,26.1914,-97.0507,2.0,356.5843084,25.17472741,-99999.0,'11111222,11111222,99999999' 
TABS,ioos:station:wmo:42044:1,2017-08-01T11:00:00Z,26.1914,-97.0507,2.0,358.3118539,18.32795679,-99999.0,'11111222,11111222,99999999' 
TABS,ioos:station:wmo:42044:1,2017-08-01T11:30:00Z,26.1914,-97.0507,2.0,10.45912972,8.979187046,-99999.0,'11133222,11111222,99999999' 
TABS,ioos:station:wmo:42044:1,2017-08-01T12:00:00Z,26.1914,-97.0507,2.0,355.0460466,20.72743592,-99999.0,'11111222,11111222,99999999' 
TABS,ioos:station:wmo:42044:1,2017-08-01T12:30:00Z,26.1914,-97.0507,2.0,358.9094913,22.06399782,-99999.0,'11111222,11111222,99999999' 
TABS,ioos:station:wmo:42044:1,2017-08-01T13:00:00Z,26.1914,-97.0507,2.0,4.033437987,21.04211254,-99999.0,'11111222,11111222,99999999' 
TABS,ioos:station:wmo:42044:1,2017-08-01T13:30:00Z,26.1914,-97.0507,2.0,11.29987598,21.94539587,-99999.0,'11111222,11111222,99999999' 
TABS,ioos:station:wmo:42044:1,2017-08-01T14:00:00Z,26.1914,-97.0507,2.0,11.48500003,18.6330808,-99999.0,'11111222,11111222,99999999' 
TABS,ioos:station:wmo:42044:1,2017-08-01T14:30:00Z,26.1914,-97.0507,2.0,16.74109919,17.11540242,-99999.0,'11111222,11111222,99999999' 
TABS,ioos:station:wmo:42044:1,2017-08-01T15:00:00Z,26.1914,-97.0507,2.0,16.44713984,19.1433017,-99999.0,'11111222,11111222,99999999' 
TABS,ioos:station:wmo:42044:1,2017-08-01T15:30:00Z,26.1914,-97.0507,2.0,15.13966167,17.38332534,-99999.0,'11111222,11111222,99999999' 
TABS,ioos:station:wmo:42044:1,2017-08-01T16:00:00Z,26.1914,-97.0507,2.0,21.08017253,15.48636174,-99999.0,'11111222,11111222,99999999' 
TABS,ioos:station:wmo:42044:1,2017-08-01T16:30:00Z,26.1914,-97.0507,2.0,22.32881462,15.13481087,-99999.0,'11111222,11111222,99999999' 
TABS,ioos:station:wmo:42044:1,2017-08-01T17:00:00Z,26.1914,-97.0507,2.0,28.2513972,14.89419014,-99999.0,'11111222,11111222,99999999' 
TABS,ioos:station:wmo:42044:1,2017-08-01T17:30:00Z,26.1914,-97.0507,2.0,35.48916709,16.43277213,-99999.0,'11111222,11111222,99999999' 
TABS,ioos:station:wmo:42044:1,2017-08-01T18:00:00Z,26.1914,-97.0507,2.0,38.72397439,13.97131347,-99999.0,'11111222,11111222,99999999' 
TABS,ioos:station:wmo:42044:1,2017-08-01T18:30:00Z,26.1914,-97.0507,2.0,45.15520947,13.0603101,-99999.0,'11111222,11111222,99999999' 
TABS,ioos:station:wmo:42044:1,2017-08-01T19:00:00Z,26.1914,-97.0507,2.0,44.62464766,10.79068116,-99999.0,'11111222,11111222,99999999' 
TABS,ioos:station:wmo:42044:1,2017-08-01T19:30:00Z,26.1914,-97.0507,2.0,39.14639845,9.01311267,-99999.0,'11133222,11111222,99999999' 
TABS,ioos:station:wmo:42044:1,2017-08-01T20:00:00Z,26.1914,-97.0507,2.0,19.25748523,6.609841148,-99999.0,'11133222,11111222,99999999' 
TABS,ioos:station:wmo:42044:1,2017-08-01T20:30:00Z,26.1914,-97.0507,2.0,16.13429654,7.089217164,-99999.0,'11133222,11111222,99999999' 
TABS,ioos:station:wmo:42044:1,2017-08-01T21:00:00Z,26.1914,-97.0507,2.0,13.04360658,6.158904123,-99999.0,'11133222,11111222,99999999' 
TABS,ioos:station:wmo:42044:1,2017-08-01T21:30:00Z,26.1914,-97.0507,2.0,353.2245701,4.068414925,-99999.0,'11133222,11111222,99999999' 
TABS,ioos:station:wmo:42044:1,2017-08-01T22:00:00Z,26.1914,-97.0507,2.0,352.1249345,4.45198832,-99999.0,'11133222,11111222,99999999' 
TABS,ioos:station:wmo:42044:1,2017-08-01T22:30:00Z,26.1914,-97.0507,2.0,339.5408739,5.550099098,-99999.0,'11133222,11111222,99999999' 
TABS,ioos:station:wmo:42044:1,2017-08-01T23:00:00Z,26.1914,-97.0507,2.0,329.5912915,5.136623405,-99999.0,'11133222,11111222,99999999' 
TABS,ioos:station:wmo:42044:1,2017-08-01T23:30:00Z,26.1914,-97.0507,2.0,335.2796135,5.141147732,-99999.0,'11133222,11111222,99999999' 
TABS,ioos:station:wmo:42044:1,2017-08-02T00:00:00Z,26.1914,-97.0507,2.0,321.4125988,6.204788473,-99999.0,'11133222,11111222,99999999' 
TABS,ioos:station:wmo:42044:1,2017-08-02T00:30:00Z,26.1914,-97.0507,2.0,302.1272254,5.998541489,-99999.0,'11133222,11111222,99999999' 
TABS,ioos:station:wmo:42044:1,2017-08-02T01:00:00Z,26.1914,-97.0507,2.0,298.7430787,5.531554935,-99999.0,'11133222,11111222,99999999' 
TABS,ioos:station:wmo:42044:1,2017-08-02T01:30:00Z,26.1914,-97.0507,2.0,308.8650579,2.183323155,-99999.0,'11133222,11111222,99999999' 
TABS,ioos:station:wmo:42044:1,2017-08-02T02:00:00Z,26.1914,-97.0507,2.0,283.1396321,3.563285001,-99999.0,'11133222,11111222,99999999' 
TABS,ioos:station:wmo:42044:1,2017-08-02T02:30:00Z,26.1914,-97.0507,2.0,299.2413015,5.076938054,-99999.0,'11133222,11111222,99999999' 
TABS,ioos:station:wmo:42044:1,2017-08-02T03:00:00Z,26.1914,-97.0507,2.0,307.9362904,9.889711826,-99999.0,'11133222,11111222,99999999' 
TABS,ioos:station:wmo:42044:1,2017-08-02T03:30:00Z,26.1914,-97.0507,2.0,306.7040553,9.654040605,-99999.0,'11133222,11111222,99999999' 
TABS,ioos:station:wmo:42044:1,2017-08-02T04:00:00Z,26.1914,-97.0507,2.0,305.0980577,6.661186081,-99999.0,'11133222,11111222,99999999' 
TABS,ioos:station:wmo:42044:1,2017-08-02T04:30:00Z,26.1914,-97.0507,2.0,308.940062,7.032588428,-99999.0,'11133222,11111222,99999999' 
TABS,ioos:station:wmo:42044:1,2017-08-02T05:00:00Z,26.1914,-97.0507,2.0,312.1468195,13.63578381,-99999.0,'11111222,11111222,99999999' 
TABS,ioos:station:wmo:42044:1,2017-08-02T05:30:00Z,26.1914,-97.0507,2.0,321.1190418,13.33421539,-99999.0,'11111222,11111222,99999999' 
TABS,ioos:station:wmo:42044:1,2017-08-02T06:00:00Z,26.1914,-97.0507,2.0,311.3800664,16.68566151,-99999.0,'11111222,11111222,99999999' 
TABS,ioos:station:wmo:42044:1,2017-08-02T06:30:00Z,26.1914,-97.0507,2.0,316.4235172,18.22069153,-99999.0,'11111222,11111222,99999999' 
TABS,ioos:station:wmo:42044:1,2017-08-02T07:00:00Z,26.1914,-97.0507,2.0,323.1815045,17.93800714,-99999.0,'11111222,11111222,99999999' 
TABS,ioos:station:wmo:42044:1,2017-08-02T07:30:00Z,26.1914,-97.0507,2.0,327.0130978,18.99159024,-99999.0,'11111222,11111222,99999999' 
TABS,ioos:station:wmo:42044:1,2017-08-02T08:00:00Z,26.1914,-97.0507,2.0,336.7605017,18.27260791,-99999.0,'11111222,11111222,99999999' 
TABS,ioos:station:wmo:42044:1,2017-08-02T08:30:00Z,26.1914,-97.0507,2.0,339.5866903,16.94409927,-99999.0,'11111222,11111222,99999999' 
TABS,ioos:station:wmo:42044:1,2017-08-02T09:00:00Z,26.1914,-97.0507,2.0,343.6690968,19.38201486,-99999.0,'11111222,11111222,99999999' 
TABS,ioos:station:wmo:42044:1,2017-08-02T09:30:00Z,26.1914,-97.0507,2.0,349.5705505,20.93590695,-99999.0,'11111222,11111222,99999999' 
TABS,ioos:station:wmo:42044:1,2017-08-02T10:00:00Z,26.1914,-97.0507,2.0,349.2344801,20.23617553,-99999.0,'11111222,11111222,99999999' 
TABS,ioos:station:wmo:42044:1,2017-08-02T10:30:00Z,26.1914,-97.0507,2.0,352.4228011,19.79283961,-99999.0,'11111222,11111222,99999999' 
TABS,ioos:station:wmo:42044:1,2017-08-02T11:00:00Z,26.1914,-97.0507,2.0,357.0302941,17.56359018,-99999.0,'11111222,11111222,99999999' 
TABS,ioos:station:wmo:42044:1,2017-08-02T11:30:00Z,26.1914,-97.0507,2.0,15.11942738,6.287646619,-99999.0,'11133222,11111222,99999999' 
TABS,ioos:station:wmo:42044:1,2017-08-02T12:00:00Z,26.1914,-97.0507,2.0,359.9706614,19.39000258,-99999.0,'11111222,11144222,99999999' 
TABS,ioos:station:wmo:42044:1,2017-08-02T12:30:00Z,26.1914,-97.0507,2.0,359.7912938,21.94014585,-99999.0,'11111222,11144222,99999999' 
TABS,ioos:station:wmo:42044:1,2017-08-02T13:00:00Z,26.1914,-97.0507,2.0,9.964657794,22.88521794,-99999.0,'11111222,11111222,99999999' 
TABS,ioos:station:wmo:42044:1,2017-08-02T13:30:00Z,26.1914,-97.0507,2.0,14.10387533,20.60099027,-99999.0,'11111222,11111222,99999999' 
TABS,ioos:station:wmo:42044:1,2017-08-02T14:00:00Z,26.1914,-97.0507,2.0,13.60991053,19.54891301,-99999.0,'11111222,11111222,99999999' 
TABS,ioos:station:wmo:42044:1,2017-08-02T14:30:00Z,26.1914,-97.0507,2.0,18.15608114,19.4798614,-99999.0,'11111222,11111222,99999999' 
TABS,ioos:station:wmo:42044:1,2017-08-02T15:00:00Z,26.1914,-97.0507,2.0,20.73042416,21.55556773,-99999.0,'11111222,11111222,99999999' 
TABS,ioos:station:wmo:42044:1,2017-08-02T15:30:00Z,26.1914,-97.0507,2.0,26.69813581,19.27495785,-99999.0,'11111222,11111222,99999999' 
TABS,ioos:station:wmo:42044:1,2017-08-02T16:00:00Z,26.1914,-97.0507,2.0,33.54769517,17.841987,-99999.0,'11111222,11111222,99999999' 
TABS,ioos:station:wmo:42044:1,2017-08-02T16:30:00Z,26.1914,-97.0507,2.0,36.37796188,14.90454964,-99999.0,'11111222,11111222,99999999' 
TABS,ioos:station:wmo:42044:1,2017-08-02T17:00:00Z,26.1914,-97.0507,2.0,37.05804392,13.4080722,-99999.0,'11111222,11111222,99999999' 
TABS,ioos:station:wmo:42044:1,2017-08-02T17:30:00Z,26.1914,-97.0507,2.0,36.46786372,13.39232989,-99999.0,'11111222,11111222,99999999' 
TABS,ioos:station:wmo:42044:1,2017-08-02T18:00:00Z,26.1914,-97.0507,2.0,43.84237173,10.14905414,-99999.0,'11111222,11111222,99999999' 
TABS,ioos:station:wmo:42044:1,2017-08-02T18:30:00Z,26.1914,-97.0507,2.0,61.99553928,6.942946061,-99999.0,'11133222,11111222,99999999' 
TABS,ioos:station:wmo:42044:1,2017-08-02T19:00:00Z,26.1914,-97.0507,2.0,83.34559051,7.248834389,-99999.0,'11133222,11111222,99999999' 
TABS,ioos:station:wmo:42044:1,2017-08-02T19:30:00Z,26.1914,-97.0507,2.0,65.34306314,7.790308081,-99999.0,'11133222,11111222,99999999' 
TABS,ioos:station:wmo:42044:1,2017-08-02T20:00:00Z,26.1914,-97.0507,2.0,56.51750929,6.126703845,-99999.0,'11133222,11111222,99999999' 
TABS,ioos:station:wmo:42044:1,2017-08-02T20:30:00Z,26.1914,-97.0507,2.0,59.17695292,3.493436703,-99999.0,'11133222,11111222,99999999' 
TABS,ioos:station:wmo:42044:1,2017-08-02T21:00:00Z,26.1914,-97.0507,2.0,47.17141194,5.97226925,-99999.0,'11133222,11111222,99999999' 
TABS,ioos:station:wmo:42044:1,2017-08-02T21:30:00Z,26.1914,-97.0507,2.0,58.53253022,4.291060475,-99999.0,'11133222,11111222,99999999' 
TABS,ioos:station:wmo:42044:1,2017-08-02T22:00:00Z,26.1914,-97.0507,2.0,32.41067513,4.347159992,-99999.0,'11133222,11111222,99999999' 
TABS,ioos:station:wmo:42044:1,2017-08-02T22:30:00Z,26.1914,-97.0507,2.0,38.48530616,4.611832608,-99999.0,'11133222,11111222,99999999' 
TABS,ioos:station:wmo:42044:1,2017-08-02T23:00:00Z,26.1914,-97.0507,2.0,45.19974082,4.058817562,-99999.0,'11133222,11111222,99999999' 
TABS,ioos:station:wmo:42044:1,2017-08-02T23:30:00Z,26.1914,-97.0507,2.0,16.04917772,3.798025803,-99999.0,'11133222,11111222,99999999' 
TABS,ioos:station:wmo:42044:1,2017-08-03T00:00:00Z,26.1914,-97.0507,2.0,355.4080092,4.996038431,-99999.0,'11133222,11111222,99999999' 
TABS,ioos:station:wmo:42044:1,2017-08-03T00:30:00Z,26.1914,-97.0507,2.0,333.2418735,3.975751501,-99999.0,'11133222,11111222,99999999' 
TABS,ioos:station:wmo:42044:1,2017-08-03T01:00:00Z,26.1914,-97.0507,2.0,335.4498155,3.562021898,-99999.0,'11133222,11111222,99999999' 
TABS,ioos:station:wmo:42044:1,2017-08-03T01:30:00Z,26.1914,-97.0507,2.0,330.2553987,0.564358042,-99999.0,'11133222,11111222,99999999' 
TABS,ioos:station:wmo:42044:1,2017-08-03T02:00:00Z,26.1914,-97.0507,2.0,323.9596676,3.178332896,-99999.0,'11133222,11111222,99999999' 
TABS,ioos:station:wmo:42044:1,2017-08-03T02:30:00Z,26.1914,-97.0507,2.0,332.1470444,3.381789467,-99999.0,'11133222,11111222,99999999' 
TABS,ioos:station:wmo:42044:1,2017-08-03T03:00:00Z,26.1914,-97.0507,2.0,355.2667832,3.150745943,-99999.0,'11133222,11111222,99999999' 
TABS,ioos:station:wmo:42044:1,2017-08-03T03:30:00Z,26.1914,-97.0507,2.0,343.2290259,2.287290974,-99999.0,'11133222,11111222,99999999' 
TABS,ioos:station:wmo:42044:1,2017-08-03T04:00:00Z,26.1914,-97.0507,2.0,331.8262163,3.981770963,-99999.0,'11133222,11111222,99999999' 
TABS,ioos:station:wmo:42044:1,2017-08-03T04:30:00Z,26.1914,-97.0507,2.0,341.3212642,6.681953307,-99999.0,'11133222,11111222,99999999' 
TABS,ioos:station:wmo:42044:1,2017-08-03T05:00:00Z,26.1914,-97.0507,2.0,343.333967,6.659767263,-99999.0,'11133222,11111222,99999999' 
TABS,ioos:station:wmo:42044:1,2017-08-03T05:30:00Z,26.1914,-97.0507,2.0,2.064025361,5.553602434,-99999.0,'11133222,11111222,99999999' 
TABS,ioos:station:wmo:42044:1,2017-08-03T06:00:00Z,26.1914,-97.0507,2.0,11.96480836,7.380331971,-99999.0,'11133222,11111222,99999999' 
TABS,ioos:station:wmo:42044:1,2017-08-03T06:30:00Z,26.1914,-97.0507,2.0,14.28734933,9.968309787,-99999.0,'11133222,11111222,99999999' 
TABS,ioos:station:wmo:42044:1,2017-08-03T07:00:00Z,26.1914,-97.0507,2.0,15.82153929,12.69077224,-99999.0,'11111222,11111222,99999999' 
TABS,ioos:station:wmo:42044:1,2017-08-03T07:30:00Z,26.1914,-97.0507,2.0,17.97988226,13.93027279,-99999.0,'11111222,11111222,99999999' 
TABS,ioos:station:wmo:42044:1,2017-08-03T08:00:00Z,26.1914,-97.0507,2.0,19.85994952,13.09904195,-99999.0,'11111222,11111222,99999999' 
TABS,ioos:station:wmo:42044:1,2017-08-03T08:30:00Z,26.1914,-97.0507,2.0,24.37761637,16.40233215,-99999.0,'11111222,11111222,99999999' 
TABS,ioos:station:wmo:42044:1,2017-08-03T09:00:00Z,26.1914,-97.0507,2.0,18.95783069,15.94486751,-99999.0,'11111222,11111222,99999999' 
TABS,ioos:station:wmo:42044:1,2017-08-03T09:30:00Z,26.1914,-97.0507,2.0,24.35919324,17.31105138,-99999.0,'11111222,11111222,99999999' 
TABS,ioos:station:wmo:42044:1,2017-08-03T10:00:00Z,26.1914,-97.0507,2.0,24.8231486,15.88789791,-99999.0,'11111222,11111222,99999999' 
TABS,ioos:station:wmo:42044:1,2017-08-03T10:30:00Z,26.1914,-97.0507,2.0,25.96421828,15.34921496,-99999.0,'11111222,11111222,99999999' 
TABS,ioos:station:wmo:42044:1,2017-08-03T11:00:00Z,26.1914,-97.0507,2.0,33.43611818,16.26119614,-99999.0,'11111222,11111222,99999999' 
TABS,ioos:station:wmo:42044:1,2017-08-03T11:30:00Z,26.1914,-97.0507,2.0,32.63539281,7.231742529,-99999.0,'11133222,11111222,99999999' 
TABS,ioos:station:wmo:42044:1,2017-08-03T12:00:00Z,26.1914,-97.0507,2.0,39.24719398,19.04639073,-99999.0,'11111222,11111222,99999999' 
TABS,ioos:station:wmo:42044:1,2017-08-03T12:30:00Z,26.1914,-97.0507,2.0,39.09397793,17.93550947,-99999.0,'11111222,11111222,99999999' 
TABS,ioos:station:wmo:42044:1,2017-08-03T13:00:00Z,26.1914,-97.0507,2.0,31.89734593,18.52773597,-99999.0,'11111222,11111222,99999999' 
TABS,ioos:station:wmo:42044:1,2017-08-03T13:30:00Z,26.1914,-97.0507,2.0,36.22684443,18.17314502,-99999.0,'11111222,11111222,99999999' 
TABS,ioos:station:wmo:42044:1,2017-08-03T14:00:00Z,26.1914,-97.0507,2.0,32.63459002,17.76451519,-99999.0,'11111222,11111222,99999999' 
TABS,ioos:station:wmo:42044:1,2017-08-03T14:30:00Z,26.1914,-97.0507,2.0,43.99502157,17.73696705,-99999.0,'11111222,11111222,99999999' 
TABS,ioos:station:wmo:42044:1,2017-08-03T15:00:00Z,26.1914,-97.0507,2.0,42.63317719,19.51865774,-99999.0,'11111222,11111222,99999999' 
TABS,ioos:station:wmo:42044:1,2017-08-03T15:30:00Z,26.1914,-97.0507,2.0,38.86314468,15.41132376,-99999.0,'11111222,11111222,99999999' 
TABS,ioos:station:wmo:42044:1,2017-08-03T16:00:00Z,26.1914,-97.0507,2.0,41.24036857,19.84169348,-99999.0,'11111222,11111222,99999999' 
TABS,ioos:station:wmo:42044:1,2017-08-03T16:30:00Z,26.1914,-97.0507,2.0,42.30062083,20.11830013,-99999.0,'11111222,11111222,99999999' 
TABS,ioos:station:wmo:42044:1,2017-08-03T17:00:00Z,26.1914,-97.0507,2.0,40.90338828,20.78548051,-99999.0,'11111222,11111222,99999999' 
TABS,ioos:station:wmo:42044:1,2017-08-03T17:30:00Z,26.1914,-97.0507,2.0,43.72191549,20.92142443,-99999.0,'11111222,11111222,99999999' 
TABS,ioos:station:wmo:42044:1,2017-08-03T18:00:00Z,26.1914,-97.0507,2.0,42.85225925,19.0557734,-99999.0,'11111222,11111222,99999999' 
TABS,ioos:station:wmo:42044:1,2017-08-03T18:30:00Z,26.1914,-97.0507,2.0,40.80935504,23.60978187,-99999.0,'11111222,11111222,99999999' 
TABS,ioos:station:wmo:42044:1,2017-08-03T19:00:00Z,26.1914,-97.0507,2.0,40.58960454,21.05635534,-99999.0,'11111222,11111222,99999999' 
TABS,ioos:station:wmo:42044:1,2017-08-03T19:30:00Z,26.1914,-97.0507,2.0,34.59606831,22.27954443,-99999.0,'11111222,11111222,99999999' 
TABS,ioos:station:wmo:42044:1,2017-08-03T20:00:00Z,26.1914,-97.0507,2.0,35.33645694,22.49405699,-99999.0,'11111222,11111222,99999999' 
TABS,ioos:station:wmo:42044:1,2017-08-03T20:30:00Z,26.1914,-97.0507,2.0,32.81993194,19.53879474,-99999.0,'11111222,11111222,99999999' 
TABS,ioos:station:wmo:42044:1,2017-08-03T21:00:00Z,26.1914,-97.0507,2.0,32.77673537,19.1368153,-99999.0,'11111222,11111222,99999999' 
TABS,ioos:station:wmo:42044:1,2017-08-03T21:30:00Z,26.1914,-97.0507,2.0,36.60919374,19.77020485,-99999.0,'11111222,11111222,99999999' 
TABS,ioos:station:wmo:42044:1,2017-08-03T22:00:00Z,26.1914,-97.0507,2.0,37.58692686,17.26335135,-99999.0,'11111222,11111222,99999999' 
TABS,ioos:station:wmo:42044:1,2017-08-03T22:30:00Z,26.1914,-97.0507,2.0,37.26078525,15.54236147,-99999.0,'11111222,11111222,99999999' 
TABS,ioos:station:wmo:42044:1,2017-08-03T23:00:00Z,26.1914,-97.0507,2.0,42.14061969,13.89073072,-99999.0,'11111222,11111222,99999999' 
TABS,ioos:station:wmo:42044:1,2017-08-03T23:30:00Z,26.1914,-97.0507,2.0,40.29043553,15.58776764,-99999.0,'11111222,11111222,99999999' 
TABS,ioos:station:wmo:42044:1,2017-08-04T00:00:00Z,26.1914,-97.0507,2.0,46.55309997,13.56729155,-99999.0,'11111222,11111222,99999999' 
TABS,ioos:station:wmo:42044:1,2017-08-04T00:30:00Z,26.1914,-97.0507,2.0,48.32782076,14.73974559,-99999.0,'11111222,11111222,99999999' 
TABS,ioos:station:wmo:42044:1,2017-08-04T01:00:00Z,26.1914,-97.0507,2.0,50.56977465,11.72971014,-99999.0,'11111222,11111222,99999999' 
TABS,ioos:station:wmo:42044:1,2017-08-04T01:30:00Z,26.1914,-97.0507,2.0,36.20781575,4.672312061,-99999.0,'11133222,11111222,99999999' 
TABS,ioos:station:wmo:42044:1,2017-08-04T02:00:00Z,26.1914,-97.0507,2.0,16.20919748,2.686801072,-99999.0,'11133222,11111222,99999999' 
TABS,ioos:station:wmo:42044:1,2017-08-04T02:30:00Z,26.1914,-97.0507,2.0,35.88449911,4.418653641,-99999.0,'11133222,11111222,99999999' 
TABS,ioos:station:wmo:42044:1,2017-08-04T03:00:00Z,26.1914,-97.0507,2.0,32.13967424,5.432504027,-99999.0,'11133222,11111222,99999999' 
TABS,ioos:station:wmo:42044:1,2017-08-04T03:30:00Z,26.1914,-97.0507,2.0,41.2557299,5.413852602,-99999.0,'11133222,11111222,99999999' 
TABS,ioos:station:wmo:42044:1,2017-08-04T04:00:00Z,26.1914,-97.0507,2.0,50.58922259,4.646568626,-99999.0,'11133222,11111222,99999999' 
TABS,ioos:station:wmo:42044:1,2017-08-04T04:30:00Z,26.1914,-97.0507,2.0,38.15103703,5.099274458,-99999.0,'11133222,11111222,99999999' 
TABS,ioos:station:wmo:42044:1,2017-08-04T05:00:00Z,26.1914,-97.0507,2.0,56.92766354,6.432122511,-99999.0,'11133222,11111222,99999999' 
TABS,ioos:station:wmo:42044:1,2017-08-04T05:30:00Z,26.1914,-97.0507,2.0,53.5133756,6.878153822,-99999.0,'11133222,11111222,99999999' 
TABS,ioos:station:wmo:42044:1,2017-08-04T06:00:00Z,26.1914,-97.0507,2.0,53.16888877,11.8440027,-99999.0,'11111222,11111222,99999999' 
TABS,ioos:station:wmo:42044:1,2017-08-04T06:30:00Z,26.1914,-97.0507,2.0,50.03678127,14.41700732,-99999.0,'11111222,11111222,99999999' 
TABS,ioos:station:wmo:42044:1,2017-08-04T07:00:00Z,26.1914,-97.0507,2.0,54.63437772,13.9428046,-99999.0,'11111222,11111222,99999999' 
TABS,ioos:station:wmo:42044:1,2017-08-04T07:30:00Z,26.1914,-97.0507,2.0,47.72216635,18.16485618,-99999.0,'11111222,11111222,99999999' 
TABS,ioos:station:wmo:42044:1,2017-08-04T08:00:00Z,26.1914,-97.0507,2.0,53.36795514,17.83215354,-99999.0,'11111222,11111222,99999999' 
TABS,ioos:station:wmo:42044:1,2017-08-04T08:30:00Z,26.1914,-97.0507,2.0,58.59540649,20.7262177,-99999.0,'11111222,11111222,99999999' 
TABS,ioos:station:wmo:42044:1,2017-08-04T09:00:00Z,26.1914,-97.0507,2.0,60.4894827,20.62590846,-99999.0,'11111222,11111222,99999999' 
TABS,ioos:station:wmo:42044:1,2017-08-04T09:30:00Z,26.1914,-97.0507,2.0,58.18196174,19.7828461,-99999.0,'11111222,11111222,99999999' 
TABS,ioos:station:wmo:42044:1,2017-08-04T10:00:00Z,26.1914,-97.0507,2.0,56.29400689,19.8582678,-99999.0,'11111222,11111222,99999999' 
TABS,ioos:station:wmo:42044:1,2017-08-04T10:30:00Z,26.1914,-97.0507,2.0,52.9285456,19.89012318,-99999.0,'11111222,11111222,99999999' 
TABS,ioos:station:wmo:42044:1,2017-08-04T11:00:00Z,26.1914,-97.0507,2.0,57.965538,20.83214103,-99999.0,'11111222,11111222,99999999' 
TABS,ioos:station:wmo:42044:1,2017-08-04T11:30:00Z,26.1914,-97.0507,2.0,57.79126553,6.866709547,-99999.0,'11133222,11111222,99999999' 
TABS,ioos:station:wmo:42044:1,2017-08-04T12:00:00Z,26.1914,-97.0507,2.0,53.06115078,19.91801446,-99999.0,'11111222,11111222,99999999' 
TABS,ioos:station:wmo:42044:1,2017-08-04T12:30:00Z,26.1914,-97.0507,2.0,49.17998255,19.59655582,-99999.0,'11111222,11111222,99999999' 
TABS,ioos:station:wmo:42044:1,2017-08-04T13:00:00Z,26.1914,-97.0507,2.0,50.66032998,19.21384917,-99999.0,'11111222,11111222,99999999' 
TABS,ioos:station:wmo:42044:1,2017-08-04T13:30:00Z,26.1914,-97.0507,2.0,51.64662186,18.6942665,-99999.0,'11111222,11111222,99999999' 
TABS,ioos:station:wmo:42044:1,2017-08-04T14:00:00Z,26.1914,-97.0507,2.0,53.68383874,19.24889867,-99999.0,'11111222,11111222,99999999' 
TABS,ioos:station:wmo:42044:1,2017-08-04T14:30:00Z,26.1914,-97.0507,2.0,45.31003177,19.60835791,-99999.0,'11111222,11111222,99999999' 
TABS,ioos:station:wmo:42044:1,2017-08-04T15:00:00Z,26.1914,-97.0507,2.0,42.04553231,17.55958997,-99999.0,'11111222,11111222,99999999' 
TABS,ioos:station:wmo:42044:1,2017-08-04T15:30:00Z,26.1914,-97.0507,2.0,39.06423627,16.82033293,-99999.0,'11111222,11111222,99999999' 
TABS,ioos:station:wmo:42044:1,2017-08-04T16:00:00Z,26.1914,-97.0507,2.0,39.64353968,16.73960872,-99999.0,'11111222,11111222,99999999' 